RYR3788 LICJ-LIEA

Flight info

Callsign RYR3788
Flight time 0h 59m
Altitude 34000
Route KAPIL DCT ADAMI DCT NEVOT/N0336F180 Q213 KOVAS M732 SODIO
Aircraft B738/M-SDE2E3FGHIRWXY/LB1

Departure

Time 2026-05-06 14:10
Airport Falcone–Borsellino Airport (LICJ)

Arrival

Time 2026-05-06 15:09
Airport Alghero-Fertilia Airport (LIEA)
Time Latitude Longitude Altitude Speed Heading
2026-05-06 14:02 38.18261 13.09873 52 ft 0 kts 67°
2026-05-06 14:05 38.18265 13.09886 50 ft 6 kts 67°
2026-05-06 14:06 38.18263 13.09952 52 ft 9 kts 135°
2026-05-06 14:06 38.18205 13.09987 52 ft 9 kts 155°
2026-05-06 14:06 38.18156 13.09961 52 ft 9 kts 251°
2026-05-06 14:06 38.18132 13.09887 48 ft 9 kts 247°
2026-05-06 14:07 38.18081 13.09866 50 ft 9 kts 162°
2026-05-06 14:07 38.18036 13.09835 52 ft 9 kts 246°
2026-05-06 14:07 38.18007 13.09749 52 ft 15 kts 246°
2026-05-06 14:07 38.17953 13.09589 50 ft 24 kts 247°
2026-05-06 14:08 38.17876 13.09359 52 ft 31 kts 246°
2026-05-06 14:08 38.17790 13.09107 52 ft 30 kts 247°
2026-05-06 14:08 38.17696 13.08910 52 ft 23 kts 216°
2026-05-06 14:08 38.17574 13.08793 52 ft 13 kts 217°
2026-05-06 14:09 38.17502 13.08736 52 ft 6 kts 196°
2026-05-06 14:09 38.17474 13.08765 51 ft 7 kts 87°
2026-05-06 14:09 38.17519 13.08910 50 ft 44 kts 66°
2026-05-06 14:09 38.17731 13.09540 52 ft 109 kts 67°
2026-05-06 14:10 38.18102 13.10639 87 ft 157 kts 66°
2026-05-06 14:10 38.18534 13.11926 689 ft 160 kts 66°
2026-05-06 14:10 38.18990 13.13262 1259 ft 172 kts 67°
2026-05-06 14:10 38.19501 13.14711 1732 ft 189 kts 67°
2026-05-06 14:11 38.20063 13.16312 2223 ft 206 kts 67°
2026-05-06 14:11 38.20660 13.18028 2730 ft 216 kts 65°
2026-05-06 14:11 38.21625 13.19578 3053 ft 242 kts 39°
2026-05-06 14:11 38.23086 13.20845 3348 ft 268 kts 28°
2026-05-06 14:12 38.24840 13.21771 4000 ft 277 kts 21°
2026-05-06 14:12 38.26647 13.22668 4846 ft 279 kts 22°
2026-05-06 14:12 38.28452 13.23601 5633 ft 283 kts 22°
2026-05-06 14:12 38.30291 13.24568 6400 ft 288 kts 22°
2026-05-06 14:13 38.32172 13.25504 7107 ft 293 kts 13°
2026-05-06 14:13 38.34195 13.25469 7812 ft 294 kts 339°
2026-05-06 14:13 38.35898 13.24110 8536 ft 291 kts 310°
2026-05-06 14:13 38.36973 13.21975 8919 ft 285 kts 287°
2026-05-06 14:14 38.37370 13.19522 8969 ft 283 kts 268°
2026-05-06 14:14 38.37378 13.17040 8978 ft 280 kts 265°
2026-05-06 14:14 38.37334 13.14565 8980 ft 279 kts 265°
2026-05-06 14:14 38.37282 13.12095 9008 ft 279 kts 265°
2026-05-06 14:15 38.37232 13.09627 8998 ft 278 kts 265°
2026-05-06 14:15 38.37187 13.07159 9011 ft 280 kts 265°
2026-05-06 14:15 38.37144 13.04664 9505 ft 283 kts 265°
2026-05-06 14:15 38.37106 13.02177 10397 ft 281 kts 265°
2026-05-06 14:16 38.37064 12.99605 10680 ft 302 kts 265°
2026-05-06 14:16 38.37019 12.96834 10893 ft 322 kts 265°
2026-05-06 14:16 38.36975 12.93938 11424 ft 331 kts 265°
2026-05-06 14:16 38.36936 12.91033 12159 ft 332 kts 265°
2026-05-06 14:17 38.36896 12.88053 12968 ft 333 kts 264°
2026-05-06 14:17 38.36857 12.85124 13754 ft 335 kts 264°
2026-05-06 14:17 38.36815 12.82151 14448 ft 338 kts 264°
2026-05-06 14:17 38.36771 12.79139 15116 ft 342 kts 265°
2026-05-06 14:18 38.36726 12.76092 15825 ft 345 kts 265°
2026-05-06 14:18 38.36680 12.73024 16551 ft 347 kts 265°
2026-05-06 14:18 38.36633 12.69937 17230 ft 351 kts 265°
2026-05-06 14:18 38.36584 12.66809 17900 ft 355 kts 265°
2026-05-06 14:19 38.36534 12.63649 18530 ft 358 kts 265°
2026-05-06 14:19 38.36483 12.60466 19106 ft 362 kts 266°
2026-05-06 14:19 38.36431 12.57249 19699 ft 364 kts 266°
2026-05-06 14:19 38.36377 12.54007 20284 ft 367 kts 266°
2026-05-06 14:20 38.36322 12.50737 20847 ft 370 kts 266°
2026-05-06 14:20 38.36265 12.47439 21399 ft 374 kts 266°
2026-05-06 14:20 38.36207 12.44113 21938 ft 377 kts 266°
2026-05-06 14:20 38.36148 12.40758 22474 ft 380 kts 266°
2026-05-06 14:21 38.36087 12.37383 23044 ft 382 kts 266°
2026-05-06 14:21 38.36025 12.33987 23565 ft 386 kts 266°
2026-05-06 14:21 38.35961 12.30556 23978 ft 389 kts 266°
2026-05-06 14:21 38.35896 12.27106 24450 ft 390 kts 266°
2026-05-06 14:22 38.35831 12.23652 24937 ft 391 kts 266°
2026-05-06 14:22 38.35763 12.20182 25401 ft 392 kts 266°
2026-05-06 14:22 38.35696 12.16696 25836 ft 395 kts 266°
2026-05-06 14:22 38.35877 12.13185 26247 ft 400 kts 275°
2026-05-06 14:23 38.36454 12.09694 26665 ft 406 kts 283°
2026-05-06 14:23 38.37416 12.06289 27085 ft 410 kts 287°
2026-05-06 14:23 38.38452 12.02902 27496 ft 412 kts 287°
2026-05-06 14:23 38.39507 11.99484 27831 ft 416 kts 286°
2026-05-06 14:24 38.40567 11.96040 28211 ft 418 kts 286°
2026-05-06 14:24 38.41622 11.92588 28731 ft 417 kts 286°
2026-05-06 14:24 38.42661 11.89167 29348 ft 413 kts 286°
2026-05-06 14:24 38.43688 11.85765 29964 ft 410 kts 285°
2026-05-06 14:25 38.44706 11.82376 30409 ft 408 kts 285°
2026-05-06 14:25 38.45719 11.78993 30821 ft 407 kts 285°
2026-05-06 14:25 38.46724 11.75630 31276 ft 405 kts 285°
2026-05-06 14:25 38.47724 11.72275 31732 ft 403 kts 285°
2026-05-06 14:26 38.48719 11.68938 32169 ft 401 kts 285°
2026-05-06 14:26 38.49711 11.65604 32512 ft 403 kts 285°
2026-05-06 14:26 38.50696 11.62282 32682 ft 407 kts 285°
2026-05-06 14:26 38.51710 11.58863 33073 ft 406 kts 285°
2026-05-06 14:27 38.52696 11.55542 33517 ft 404 kts 285°
2026-05-06 14:27 38.53688 11.52197 33943 ft 402 kts 285°
2026-05-06 14:27 38.55683 11.45442 33972 ft 408 kts 285°
2026-05-06 14:28 38.57671 11.38712 33966 ft 399 kts 285°
2026-05-06 14:28 38.59617 11.32102 33985 ft 398 kts 284°
2026-05-06 14:29 38.61569 11.25442 33988 ft 401 kts 284°
2026-05-06 14:29 38.63531 11.18733 33982 ft 405 kts 284°
2026-05-06 14:30 38.65507 11.11968 33984 ft 407 kts 284°
2026-05-06 14:30 38.67488 11.05166 33982 ft 409 kts 284°
2026-05-06 14:31 38.69473 10.98340 33976 ft 410 kts 284°
2026-05-06 14:31 38.71457 10.91501 33973 ft 409 kts 284°
2026-05-06 14:32 38.73102 10.85824 33970 ft 408 kts 284°
2026-05-06 14:32 38.75070 10.79019 33973 ft 406 kts 284°
2026-05-06 14:33 38.77022 10.72250 33974 ft 404 kts 284°
2026-05-06 14:33 38.78963 10.65498 33971 ft 403 kts 284°
2026-05-06 14:34 38.80894 10.58764 33975 ft 402 kts 284°
2026-05-06 14:34 38.82816 10.52044 33977 ft 402 kts 283°
2026-05-06 14:35 38.84738 10.45306 33977 ft 402 kts 283°
2026-05-06 14:35 38.86661 10.38551 33969 ft 403 kts 283°
2026-05-06 14:36 38.88582 10.31784 33972 ft 404 kts 283°
2026-05-06 14:36 38.90506 10.24987 33990 ft 405 kts 283°
2026-05-06 14:37 38.92427 10.18189 33970 ft 405 kts 283°
2026-05-06 14:37 38.94343 10.11389 33967 ft 404 kts 282°
2026-05-06 14:38 38.96247 10.04613 33962 ft 403 kts 282°
2026-05-06 14:38 38.98143 9.97848 33962 ft 402 kts 282°
2026-05-06 14:39 39.00029 9.91097 33959 ft 401 kts 282°
2026-05-06 14:39 39.01909 9.84358 33962 ft 400 kts 282°
2026-05-06 14:40 39.04230 9.77789 33971 ft 412 kts 295°
2026-05-06 14:40 39.07932 9.72279 33657 ft 411 kts 309°
2026-05-06 14:41 39.10056 9.69858 33368 ft 406 kts 310°
2026-05-06 14:41 39.12177 9.67486 33001 ft 403 kts 310°
2026-05-06 14:41 39.14285 9.65131 32640 ft 399 kts 310°
2026-05-06 14:41 39.16371 9.62785 32285 ft 396 kts 309°
2026-05-06 14:42 39.18436 9.60442 31942 ft 394 kts 309°
2026-05-06 14:42 39.20485 9.58104 31578 ft 392 kts 309°
2026-05-06 14:42 39.22515 9.55777 31229 ft 390 kts 309°
2026-05-06 14:42 39.24541 9.53450 30873 ft 389 kts 309°
2026-05-06 14:43 39.26559 9.51127 30523 ft 388 kts 309°
2026-05-06 14:43 39.28573 9.48807 30172 ft 387 kts 309°
2026-05-06 14:43 39.30579 9.46494 29781 ft 386 kts 309°
2026-05-06 14:43 39.32580 9.44185 29404 ft 385 kts 310°
2026-05-06 14:44 39.34566 9.41894 29003 ft 382 kts 310°
2026-05-06 14:44 39.36545 9.39610 28641 ft 380 kts 310°
2026-05-06 14:44 39.38513 9.37337 28262 ft 378 kts 310°
2026-05-06 14:45 39.42412 9.32824 27543 ft 375 kts 310°
2026-05-06 14:45 39.44353 9.30573 27205 ft 374 kts 310°
2026-05-06 14:45 39.46285 9.28332 26822 ft 373 kts 310°
2026-05-06 14:45 39.48217 9.26091 26483 ft 372 kts 310°
2026-05-06 14:46 39.50136 9.23862 26120 ft 371 kts 310°
2026-05-06 14:46 39.52056 9.21630 25736 ft 370 kts 310°
2026-05-06 14:46 39.53966 9.19409 25408 ft 368 kts 310°
2026-05-06 14:46 39.55865 9.17198 25047 ft 366 kts 310°
2026-05-06 14:47 39.57756 9.14995 24699 ft 365 kts 310°
2026-05-06 14:47 39.59636 9.12804 24339 ft 363 kts 310°
2026-05-06 14:47 39.61489 9.10641 23978 ft 363 kts 311°
2026-05-06 14:47 39.63363 9.08453 23642 ft 362 kts 311°
2026-05-06 14:48 39.65289 9.06351 23234 ft 364 kts 318°
2026-05-06 14:48 39.67409 9.04529 22806 ft 366 kts 321°
2026-05-06 14:48 39.69569 9.02793 22420 ft 364 kts 323°
2026-05-06 14:48 39.71721 9.01070 22049 ft 362 kts 323°
2026-05-06 14:49 39.73847 8.99345 21703 ft 360 kts 323°
2026-05-06 14:49 39.75955 8.97608 21344 ft 358 kts 323°
2026-05-06 14:49 39.78048 8.95871 21008 ft 356 kts 323°
2026-05-06 14:49 39.80122 8.94145 20666 ft 354 kts 323°
2026-05-06 14:50 39.82192 8.92422 20319 ft 352 kts 323°
2026-05-06 14:50 39.84257 8.90705 19977 ft 351 kts 323°
2026-05-06 14:50 39.86314 8.88993 19639 ft 350 kts 323°
2026-05-06 14:50 39.88354 8.87294 19296 ft 349 kts 323°
2026-05-06 14:51 39.90399 8.85589 18962 ft 348 kts 323°
2026-05-06 14:51 39.92439 8.83887 18603 ft 348 kts 322°
2026-05-06 14:51 39.94465 8.82197 18258 ft 345 kts 323°
2026-05-06 14:51 39.96478 8.80516 17908 ft 342 kts 322°
2026-05-06 14:52 39.98469 8.78851 17543 ft 340 kts 323°
2026-05-06 14:52 40.00453 8.77192 17204 ft 338 kts 323°
2026-05-06 14:52 40.02428 8.75539 16871 ft 336 kts 323°
2026-05-06 14:52 40.04393 8.73891 16541 ft 335 kts 323°
2026-05-06 14:53 40.06344 8.72254 16217 ft 333 kts 323°
2026-05-06 14:53 40.08291 8.70622 15910 ft 331 kts 322°
2026-05-06 14:53 40.10225 8.68997 15591 ft 330 kts 323°
2026-05-06 14:53 40.12143 8.67383 15273 ft 328 kts 323°
2026-05-06 14:54 40.14061 8.65769 14951 ft 327 kts 323°
2026-05-06 14:54 40.15971 8.64161 14649 ft 325 kts 323°
2026-05-06 14:54 40.17866 8.62564 14325 ft 323 kts 324°
2026-05-06 14:54 40.19752 8.60975 14014 ft 321 kts 324°
2026-05-06 14:55 40.21626 8.59394 13691 ft 319 kts 324°
2026-05-06 14:55 40.23486 8.57824 13335 ft 317 kts 324°
2026-05-06 14:55 40.25330 8.56267 13009 ft 315 kts 324°
2026-05-06 14:55 40.27163 8.54719 12699 ft 312 kts 324°
2026-05-06 14:56 40.29016 8.53251 12381 ft 311 kts 328°
2026-05-06 14:56 40.30918 8.51932 12089 ft 309 kts 330°
2026-05-06 14:56 40.32826 8.50648 11776 ft 307 kts 330°
2026-05-06 14:56 40.34690 8.49390 11475 ft 305 kts 329°
2026-05-06 14:57 40.36591 8.48094 11164 ft 303 kts 329°
2026-05-06 14:57 40.38423 8.46835 10868 ft 300 kts 329°
2026-05-06 14:57 40.40286 8.45549 10565 ft 298 kts 329°
2026-05-06 14:57 40.42090 8.44300 10281 ft 296 kts 329°
2026-05-06 14:58 40.43908 8.43039 10004 ft 294 kts 329°
2026-05-06 14:58 40.45715 8.41785 9744 ft 292 kts 329°
2026-05-06 14:58 40.47492 8.40551 9497 ft 288 kts 329°
2026-05-06 14:58 40.49258 8.39326 9243 ft 285 kts 329°
2026-05-06 14:59 40.51017 8.38132 8955 ft 285 kts 335°
2026-05-06 14:59 40.52962 8.37689 8653 ft 289 kts
2026-05-06 14:59 40.54883 8.38393 8399 ft 287 kts 22°
2026-05-06 14:59 40.56702 8.39474 8122 ft 286 kts 24°
2026-05-06 15:00 40.58502 8.40594 7831 ft 285 kts 24°
2026-05-06 15:00 40.60289 8.41707 7558 ft 284 kts 24°
2026-05-06 15:00 40.62065 8.42803 7272 ft 283 kts 24°
2026-05-06 15:00 40.63845 8.43893 6985 ft 281 kts 24°
2026-05-06 15:01 40.65618 8.44973 6711 ft 280 kts 24°
2026-05-06 15:01 40.67378 8.46042 6429 ft 279 kts 23°
2026-05-06 15:01 40.69135 8.47104 6153 ft 277 kts 24°
2026-05-06 15:01 40.70879 8.48161 5871 ft 275 kts 24°
2026-05-06 15:02 40.72622 8.49217 5432 ft 280 kts 24°
2026-05-06 15:02 40.74395 8.50289 5094 ft 280 kts 24°
2026-05-06 15:02 40.76162 8.51358 4792 ft 277 kts 23°
2026-05-06 15:02 40.77979 8.51917 4465 ft 264 kts 355°
2026-05-06 15:03 40.79671 8.51290 4363 ft 246 kts 329°
2026-05-06 15:03 40.80984 8.49953 4263 ft 235 kts 311°
2026-05-06 15:03 40.81869 8.48192 4165 ft 227 kts 296°
2026-05-06 15:03 40.82533 8.46340 4071 ft 219 kts 293°
2026-05-06 15:04 40.83132 8.44538 3991 ft 209 kts 287°
2026-05-06 15:04 40.83198 8.42717 3904 ft 196 kts 254°
2026-05-06 15:04 40.82521 8.41196 3721 ft 195 kts 217°
2026-05-06 15:04 40.81335 8.40406 3564 ft 186 kts 210°
2026-05-06 15:05 40.80266 8.39483 3472 ft 187 kts 213°
2026-05-06 15:05 40.79099 8.38659 3246 ft 192 kts 206°
2026-05-06 15:05 40.77888 8.37917 3000 ft 191 kts 205°
2026-05-06 15:05 40.76681 8.37192 2745 ft 189 kts 205°
2026-05-06 15:06 40.75496 8.36480 2494 ft 185 kts 205°
2026-05-06 15:06 40.74337 8.35784 2241 ft 181 kts 205°
2026-05-06 15:06 40.73209 8.35107 1972 ft 180 kts 205°
2026-05-06 15:06 40.72085 8.34422 1755 ft 175 kts 206°
2026-05-06 15:07 40.70970 8.33744 1522 ft 174 kts 205°
2026-05-06 15:07 40.69877 8.33101 1284 ft 175 kts 204°
2026-05-06 15:07 40.68782 8.32454 1017 ft 169 kts 206°
2026-05-06 15:07 40.67795 8.31839 921 ft 150 kts 205°
2026-05-06 15:08 40.66859 8.31285 674 ft 147 kts 205°
2026-05-06 15:08 40.65949 8.30724 466 ft 143 kts 205°
2026-05-06 15:08 40.65054 8.30187 272 ft 139 kts 205°
2026-05-06 15:08 40.64193 8.29669 113 ft 131 kts 205°
2026-05-06 15:09 40.63465 8.29230 96 ft 89 kts 205°
2026-05-06 15:09 40.63095 8.29007 97 ft 40 kts 205°
2026-05-06 15:09 40.62851 8.28861 92 ft 32 kts 204°
2026-05-06 15:09 40.62674 8.28837 82 ft 25 kts 175°
2026-05-06 15:10 40.62596 8.28880 79 ft 11 kts 113°
2026-05-06 15:10 40.62622 8.28969 82 ft 11 kts 34°
2026-05-06 15:10 40.62696 8.29015 86 ft 14 kts 25°
2026-05-06 15:10 40.62796 8.29075 88 ft 17 kts 24°
2026-05-06 15:11 40.62851 8.29172 91 ft 13 kts 71°
2026-05-06 15:11 40.62889 8.29267 92 ft 11 kts 34°
2026-05-06 15:11 40.62955 8.29309 91 ft 10 kts 24°
2026-05-06 15:11 40.63020 8.29348 89 ft 10 kts 25°
2026-05-06 15:12 40.63083 8.29386 91 ft 10 kts 25°
2026-05-06 15:12 40.63145 8.29423 92 ft 10 kts 24°
2026-05-06 15:12 40.63193 8.29452 92 ft 6 kts 25°
2026-05-06 15:12 40.63252 8.29483 93 ft 12 kts
2026-05-06 15:13 40.63331 8.29461 92 ft 10 kts 332°
2026-05-06 15:13 40.63321 8.29391 96 ft 10 kts 210°
2026-05-06 15:13 40.63260 8.29354 95 ft 9 kts 204°
2026-05-06 15:13 40.63200 8.29317 97 ft 10 kts 204°
2026-05-06 15:14 40.63131 8.29276 96 ft 12 kts 204°
2026-05-06 15:14 40.63051 8.29229 94 ft 13 kts 204°
2026-05-06 15:14 40.62972 8.29181 95 ft 13 kts 205°
2026-05-06 15:14 40.62896 8.29136 92 ft 9 kts 202°
2026-05-06 15:15 40.62857 8.29180 92 ft 9 kts 91°
2026-05-06 15:15 40.62877 8.29255 91 ft 9 kts 53°
2026-05-06 15:15 40.62927 8.29292 91 ft 8 kts 24°
2026-05-06 15:15 40.62984 8.29327 89 ft 10 kts 25°
2026-05-06 15:16 40.63047 8.29364 90 ft 10 kts 25°
2026-05-06 15:16 40.63110 8.29402 92 ft 10 kts 24°
2026-05-06 15:16 40.63139 8.29453 90 ft 7 kts 108°
2026-05-06 15:16 40.63129 8.29482 90 ft 2 kts 115°
2026-05-06 15:17 40.63128 8.29485 89 ft 0 kts 115°